Location: Unspecified
(49.2170°N, 0.0000°E)
Time: 05:35:10
(UTC+00:00)

Vanguard 1 - Pass Details

Date: 29 January 2021
Orbit: 649 x 3834 km, 34.2° (Epoch: 08 March)

Event Time Altitude Azimuth Distance (km) Brightness Sun altitude
Rises 18:34:34 0° 280° (W) 7,782 16.1 -16.8°
Reaches altitude 10° 18:41:31 10° 268° (W) 6,916 15.7 -17.9°
Maximum altitude 18:56:56 23° 227° (SW) 5,655 14.4 -20.4°
Drops below altitude 10° 19:10:27 10° 183° (S) 5,950 14.1 -22.6°
Sets 19:15:53 0° 170° (S) 6,499 14.2 -23.5°
